"2009-08-21 00:00:00",1169569,2.857,106.7,6.382,0.236,19.3,109.7158,24.16,25.23,23.26,0,111.3,13.09,25.00,68.7
"2009-08-21 00:00:30",1169570,2.611,110.5,4.645,0.225,19.34,109.7137,24.16,25.23,23.32,0,111.3,13.08,25.00,72.5
"2009-08-21 00:01:00",1169571,2.719,118.6,4.214,0.255,19.38,109.712,24.15,25.21,23.41,0,111.3,13.08,24.99,80.6
"2009-08-21 00:01:30",1169572,1.954,118,10.37,0.501,19.41,109.7139,24.16,25.2,23.5,0,111.3,13.08,25.00,80.0
"2009-08-21 00:02:00",1169573,2.239,118.5,11.13,0.146,19.35,109.7024,24.13,25.18,23.45,0,111.3,13.08,24.97,80.5
"2009-08-21 00:02:30",1169574,1.608,112.1,5.813,0.349,19.37,109.6913,24.1,25.17,23.48,0,111.3,13.08,24.94,74.1
"2009-08-21 00:03:00",1169575,2.021,106.3,5.202,0.613,19.33,109.6864,24.09,25.14,23.53,0,111.3,13.08,24.92,68.3
"2009-08-21 00:03:30",1169576,2.547,116.7,5.024,0.169,19.31,109.6842,24.08,25.13,23.56,0,111.3,13.08,24.92,78.7
"2009-08-21 00:04:00",1169577,2.306,108.2,3.23,0.225,19.36,109.6842,24.08,25.11,23.62,0,111.3,13.08,24.92,70.2
"2009-08-21 00:04:30",1169578,1.88,120.8,6.407,0.215,19.34,109.6845,24.08,25.1,23.61,0,111.3,13.08,24.92,82.8
"2009-08-21 00:05:00",1169579,2.081,129.4,4.246,0.208,19.33,109.6842,24.08,25.09,23.54,0,111.3,13.08,24.92,91.4
"2009-08-21 00:05:30",1169580,1.834,107.6,10.2,0.122,19.39,109.6846,24.08,25.07,23.51,0,111.3,13.08,24.92,69.6
"2009-08-21 00:06:00",1169581,1.597,106,10.89,0.179,19.42,109.6849,24.08,25.08,23.58,0,111.3,13.09,24.92,68.0
"2009-08-21 00:06:30",1169582,1.183,136.3,8.41,0.165,19.27,109.6865,24.09,25.07,23.57,0,111.3,13.09,24.93,98.3
"2009-08-21 00:07:00",1169583,1.108,136.1,4.936,0.132,19.27,109.6864,24.09,25.08,23.55,0,111.3,13.09,24.92,98.1
"2009-08-21 00:07:30",1169584,1.593,137,5.525,0.139,19.27,109.6898,24.1,25.08,23.56,0,111.3,13.09,24.93,99.0
"2009-08-21 00:08:00",1169585,1.605,139.4,6.492,0.206,19.27,109.6919,24.1,25.08,23.51,0,111.3,13.09,24.94,101.4
"2009-08-21 00:08:30",1169586,1.675,142.1,8.1,0.406,19.27,109.6925,24.1,25.09,23.5,0,111.3,13.09,24.94,104.1
"2009-08-21 00:09:00",1169587,2.434,119.8,7.488,0.23,19.22,109.6931,24.11,25.08,23.48,0,111.3,13.09,24.94,81.8
"2009-08-21 00:09:30",1169588,2.448,118.1,3.737,0.21,19.23,109.6937,24.11,25.09,23.39,0,111.3,13.09,24.94,80.1
"2009-08-21 00:10:00",1169589,1.672,123.7,4.983,0.265,19.34,109.6937,24.11,25.1,23.38,0,111.3,13.09,24.94,85.7
"2009-08-21 00:10:30",1169590,1.275,135.3,5.547,0.201,19.26,109.6934,24.11,25.1,23.44,0,111.3,13.09,24.94,97.3
"2009-08-21 00:11:00",1169591,1.052,137.3,4.374,0.244,19.27,109.6937,24.11,25.13,23.44,0,111.3,13.09,24.94,99.3
"2009-08-21 00:11:30",1169592,0.657,136,14.38,0.203,19.21,109.6937,24.11,25.12,23.39,0,111.3,13.09,24.94,98.0
"2009-08-21 00:12:00",1169593,0.913,118.9,20.58,0.13,19.23,109.6937,24.11,25.14,23.31,0,111.3,13.09,24.94,80.9
"2009-08-21 00:12:30",1169594,1.104,117.7,6.42,0.127,19.25,109.694,24.11,25.13,23.31,0,111.3,13.09,24.94,79.7
"2009-08-21 00:13:00",1169595,1.534,126,4.142,0.201,19.19,109.6937,24.11,25.13,23.25,0,111.3,13.09,24.94,88.0
"2009-08-21 00:13:30",1169596,1.539,127,6.5,0.165,19.23,109.6943,24.11,25.14,23.24,0,111.3,13.09,24.95,89.0
"2009-08-21 00:14:00",1169597,1.115,131,2.647,0.132,19.26,109.6985,24.12,25.15,23.24,0,111.3,13.09,24.96,93.0
"2009-08-21 00:14:30",1169598,0.926,114.1,9.15,0.085,19.24,109.7055,24.14,25.15,23.22,0,111.3,13.09,24.97,76.1
"2009-08-21 00:15:00",1169599,0.888,120,7.802,0.159,19.21,109.7117,24.15,25.15,23.17,0,111.3,13.09,24.99,82.0
"2009-08-21 00:15:30",1169600,1.033,127.4,5.875,0.107,19.21,109.7205,24.18,25.16,23.05,0,111.3,13.09,25.01,89.4
"2009-08-21 00:16:00",1169601,1.195,134.7,2.729,0.136,19.16,109.7254,24.19,25.17,23,0,111.3,13.09,25.03,96.7
"2009-08-21 00:16:30",1169602,0.981,146.2,10.22,0.121,19.19,109.7274,24.19,25.2,23.04,0,111.3,13.09,25.03,108.2
"2009-08-21 00:17:00",1169603,0.972,144,2.579,0.129,19.16,109.7274,24.19,25.2,23.05,0,111.3,13.09,25.03,106.0
"2009-08-21 00:17:30",1169604,0.931,149.5,6.906,0.14,19.18,109.7274,24.19,25.22,23.02,0,111.3,13.09,25.03,111.5
"2009-08-21 00:18:00",1169605,1.048,136.1,6.394,0.177,19.16,109.7276,24.19,25.22,23,0,111.3,13.09,25.03,98.1
"2009-08-21 00:18:30",1169606,1.332,148,6.984,0.283,19.2,109.7276,24.19,25.22,22.87,0,111.3,13.09,25.03,110.0
"2009-08-21 00:19:00",1169607,1.594,154.6,7.181,0.218,19.28,109.7293,24.2,25.23,22.8,0,111.3,13.09,25.04,116.6
"2009-08-21 00:19:30",1169608,1.482,159.8,9.2,0.26,19.3,109.7307,24.2,25.23,22.92,0,111.3,13.09,25.04,121.8
"2009-08-21 00:20:00",1169609,1.343,186.7,7.918,0.198,19.29,109.7321,24.21,25.24,23.08,0,111.3,13.09,25.04,148.7
"2009-08-21 00:20:30",1169610,0.963,133.9,25.74,0.277,19.24,109.7344,24.21,25.25,23.19,0,111.3,13.09,25.05,95.9
"2009-08-21 00:21:00",1169611,1.326,120.6,8.28,0.105,19.26,109.7341,24.21,25.25,23,0,111.3,13.09,25.05,82.6
"2009-08-21 00:21:30",1169612,1.422,122.2,5.567,0.186,19.22,109.7346,24.21,25.26,22.91,0,111.3,13.09,25.05,84.2
"2009-08-21 00:22:00",1169613,1.334,119.7,6.13,0.115,19.3,109.7344,24.21,25.27,22.93,0,111.3,13.09,25.05,81.7
"2009-08-21 00:22:30",1169614,1.436,139.9,15.84,0.233,19.26,109.7366,24.22,25.26,22.92,0,111.3,13.09,25.05,101.9
"2009-08-21 00:23:00",1169615,1.987,173.9,14.46,0.196,19.31,109.7333,24.21,25.26,23.3,0,111.3,13.09,25.05,135.9
"2009-08-21 00:23:30",1169616,1.554,169.2,3.981,0.188,19.31,109.7265,24.19,25.25,23.44,0,111.3,13.09,25.03,131.2
"2009-08-21 00:24:00",1169617,1.553,151.5,6.114,0.169,19.28,109.708,24.14,25.23,23.44,0,111.3,13.09,24.98,113.5
"2009-08-21 00:24:30",1169618,1.591,143.7,3.886,0.244,19.31,109.6755,24.06,25.18,23.57,0,111.3,13.09,24.90,105.7
"2009-08-21 00:25:00",1169619,1.592,141.7,8.37,0.216,19.35,109.6536,24,25.14,23.77,0,111.3,13.09,24.84,103.7
"2009-08-21 00:25:30",1169620,2.51,138,3.609,0.222,19.36,109.6365,23.96,25.1,23.16,0,111.3,13.09,24.80,100.0
"2009-08-21 00:26:00",1169621,2.532,137.4,3.163,0.115,19.47,109.6365,23.96,25.08,22.92,0,111.3,13.08,24.80,99.4
"2009-08-21 00:26:30",1169622,2.312,155,7.945,0.182,19.49,109.6435,23.98,25.04,23.09,0,111.3,13.08,24.81,117.0
"2009-08-21 00:27:00",1169623,2.044,147.3,6.35,0.245,19.49,109.6474,23.99,25.04,23.26,0,111.3,13.08,24.82,109.3
"2009-08-21 00:27:30",1169624,1.758,169.9,8.82,0.308,19.53,109.6306,23.95,25.03,23.51,0,111.3,13.08,24.78,131.9
"2009-08-21 00:28:00",1169625,1.122,156.6,14.76,0.324,19.49,109.6258,23.93,25.01,23.36,0,111.3,13.08,24.77,118.6
"2009-08-21 00:28:30",1169626,0.909,173,8.7,0.255,19.48,109.6264,23.93,24.99,23.23,0,111.3,13.08,24.77,135.0
"2009-08-21 00:29:00",1169627,1.189,150.4,13.78,0.196,19.33,109.6258,23.93,24.97,23.08,0,111.3,13.08,24.77,112.4
"2009-08-21 00:29:30",1169628,1.089,160.1,14.32,0.15,19.32,109.6264,23.93,24.97,23.02,0,111.3,13.08,24.77,122.1
"2009-08-21 00:30:00",1169629,1.366,166,9.64,0.137,19.37,109.6264,23.93,24.96,23.07,0,111.3,13.09,24.77,128.0
"2009-08-21 00:30:30",1169630,1.303,161.2,7.451,0.175,19.36,109.6267,23.94,24.98,22.93,0,111.3,13.09,24.77,123.2
"2009-08-21 00:31:00",1169631,1.557,167.9,13.96,0.404,19.33,109.6309,23.95,24.98,22.89,0,111.3,13.09,24.78,129.9
"2009-08-21 00:31:30",1169632,1.392,154.6,11.4,0.201,19.34,109.6348,23.96,24.98,22.87,0,111.3,13.09,24.79,116.6
"2009-08-21 00:32:00",1169633,1.346,151.1,4.263,0.118,19.4,109.6373,23.96,25.01,22.75,0,111.3,13.09,24.80,113.1
"2009-08-21 00:32:30",1169634,1.331,142.4,6.424,0.119,19.36,109.6413,23.97,25.01,22.71,0,111.3,13.09,24.81,104.4
"2009-08-21 00:33:00",1169635,1.428,147.1,11.97,0.122,19.42,109.6457,23.98,25.03,22.69,0,111.3,13.09,24.82,109.1
"2009-08-21 00:33:30",1169636,1.417,159.9,7.118,0.101,19.45,109.6452,23.98,25.02,22.81,0,111.3,13.09,24.82,121.9
"2009-08-21 00:34:00",1169637,1.399,143.1,3.381,0.061,19.46,109.6469,23.99,25.04,22.58,0,111.2,13.09,24.82,105.1
"2009-08-21 00:34:30",1169638,1.365,140.5,1.945,0.079,19.41,109.6474,23.99,25.02,22.55,0,111.3,13.09,24.82,102.5
"2009-08-21 00:35:00",1169639,1.163,140.9,5.367,0.147,19.38,109.6455,23.98,25.03,22.6,0,111.3,13.09,24.82,102.9
"2009-08-21 00:35:30",1169640,0.843,150.2,5.569,0.113,19.47,109.6471,23.99,25.04,22.64,0,111.3,13.09,24.82,112.2
"2009-08-21 00:36:00",1169641,0.849,154.3,8.66,0.065,19.45,109.6511,24,25.03,22.77,0,111.2,13.09,24.83,116.3
"2009-08-21 00:36:30",1169642,0.89,159.3,4.795,0.239,19.38,109.6561,24.01,25.03,22.84,0,111.3,13.09,24.85,121.3
"2009-08-21 00:37:00",1169643,1.213,156.3,2.489,0.057,19.4,109.6491,23.99,25.04,22.92,0,111.3,13.09,24.83,118.3
"2009-08-21 00:37:30",1169644,1.341,156.3,4.548,0.158,19.39,109.6511,24,25.03,22.84,0,111.3,13.09,24.83,118.3
"2009-08-21 00:38:00",1169645,1.176,150.8,10.29,0.125,19.32,109.655,24.01,25.04,22.83,0,111.3,13.09,24.84,112.8
"2009-08-21 00:38:30",1169646,0.847,148.7,5.35,0.12,19.37,109.6544,24.01,25.03,22.92,0,111.2,13.09,24.84,110.7
"2009-08-21 00:39:00",1169647,0.971,145.4,3.745,0.088,19.3,109.6497,23.99,25.04,23.05,0,111.3,13.09,24.83,107.4
"2009-08-21 00:39:30",1169648,0.987,144.7,2.51,0.045,19.24,109.6565,24.01,25.02,23.08,0,111.2,13.09,24.85,106.7
"2009-08-21 00:40:00",1169649,1.054,146.2,3.959,0.074,19.26,109.661,24.02,25.04,23.06,0,111.3,13.09,24.86,108.2
"2009-08-21 00:40:30",1169650,0.905,145,3.897,0.124,19.34,109.6613,24.02,25.06,22.98,0,111.2,13.09,24.86,107.0
"2009-08-21 00:41:00",1169651,0.73,127.8,4.238,0.052,19.27,109.6613,24.02,25.06,22.91,0,111.2,13.09,24.86,89.8
"2009-08-21 00:41:30",1169652,0.788,134.1,2.15,0.083,19.38,109.6652,24.03,25.07,22.91,0,111.2,13.09,24.87,96.1
"2009-08-21 00:42:00",1169653,0.617,137.1,2.319,0.071,19.35,109.6733,24.06,25.09,22.95,0,111.2,13.09,24.89,99.1
"2009-08-21 00:42:30",1169654,0.558,143.2,7.103,0.068,19.32,109.6916,24.1,25.1,22.9,0,111.2,13.09,24.94,105.2
"2009-08-21 00:43:00",1169655,0.958,164.6,3.218,0.219,19.32,109.6971,24.12,25.1,22.81,0,111.2,13.09,24.95,126.6
"2009-08-21 00:43:30",1169656,0.977,161.5,7.5,0.121,19.37,109.6962,24.11,25.13,22.76,0,111.2,13.09,24.95,123.5
"2009-08-21 00:44:00",1169657,1.011,189.5,4.532,0.049,19.49,109.6971,24.12,25.12,22.83,0,111.2,13.09,24.95,151.5
"2009-08-21 00:44:30",1169658,1.26,193.6,4.956,0.104,19.36,109.6977,24.12,25.11,22.94,0,111.2,13.09,24.95,155.6
"2009-08-21 00:45:00",1169659,0.964,191.2,2.787,0.048,19.51,109.6967,24.12,25.12,23.03,0,111.2,13.08,24.95,153.2
"2009-08-21 00:45:30",1169660,0.754,201.1,7.832,0.135,19.4,109.7022,24.13,25.16,23.04,0,111.2,13.09,24.97,163.1
"2009-08-21 00:46:00",1169661,1.159,201.1,8.83,0.164,19.4,109.7141,24.16,25.16,23.03,0,111.2,13.09,25.00,163.1
"2009-08-21 00:46:30",1169662,1.298,190.7,6.009,0.108,19.41,109.7219,24.18,25.17,23.02,0,111.2,13.09,25.02,152.7
"2009-08-21 00:47:00",1169663,1.2,198.4,4.72,0.091,19.42,109.7322,24.21,25.18,23,0,111.2,13.09,25.04,160.4
"2009-08-21 00:47:30",1169664,1.379,198.6,2.895,0.162,19.43,109.7357,24.22,25.19,23.03,0,111.2,13.09,25.05,160.6
"2009-08-21 00:48:00",1169665,1.607,199.7,4.176,0.061,19.49,109.7341,24.21,25.21,23.01,0,111.2,13.09,25.05,161.7
"2009-08-21 00:48:30",1169666,1.558,199.9,3.751,0.085,19.51,109.7344,24.21,25.22,22.96,0,111.3,13.09,25.05,161.9
"2009-08-21 00:49:00",1169667,1.289,193.6,10.37,0.133,19.48,109.7391,24.22,25.24,22.94,0,111.3,13.09,25.06,155.6
"2009-08-21 00:49:30",1169668,1.38,182.6,3.393,0.115,19.51,109.7403,24.23,25.26,22.96,0,111.3,13.09,25.06,144.6
"2009-08-21 00:50:00",1169669,1.635,186.1,7.035,0.135,19.56,109.7435,24.24,25.25,22.93,0,111.3,13.09,25.07,148.1
"2009-08-21 00:50:30",1169670,1.563,182.6,10.45,0.171,19.57,109.7494,24.25,25.26,22.93,0,111.3,13.09,25.09,144.6
"2009-08-21 00:51:00",1169671,1.614,182.4,3.951,0.101,19.6,109.7532,24.26,25.27,22.93,0,111.3,13.09,25.10,144.4
"2009-08-21 00:51:30",1169672,1.705,181.7,3.668,0.059,19.66,109.7542,24.26,25.27,22.85,0,111.3,13.09,25.10,143.7
"2009-08-21 00:52:00",1169673,1.514,179.9,3.99,0.129,19.66,109.7571,24.27,25.28,22.8,0,111.2,13.09,25.11,141.9
"2009-08-21 00:52:30",1169674,1.499,185.3,4.285,0.129,19.69,109.7599,24.28,25.29,22.71,0,111.3,13.09,25.11,147.3
"2009-08-21 00:53:00",1169675,1.154,178.2,5.565,0.16,19.68,109.7606,24.28,25.28,22.69,0,111.3,13.09,25.12,140.2
"2009-08-21 00:53:30",1169676,1.085,173.7,6.708,0.141,19.68,109.7601,24.28,25.28,22.65,0,111.3,13.09,25.11,135.7
"2009-08-21 00:54:00",1169677,1.104,173.5,3.27,0.113,19.69,109.761,24.28,25.28,22.54,0,111.2,13.09,25.12,135.5
"2009-08-21 00:54:30",1169678,1.179,173.9,3.644,0.098,19.64,109.7576,24.27,25.27,22.41,0,111.2,13.09,25.11,135.9
"2009-08-21 00:55:00",1169679,1.16,190.3,3.525,0.072,19.63,109.7579,24.27,25.29,22.66,0,111.2,13.09,25.11,152.3
"2009-08-21 00:55:30",1169680,1.501,183.6,4.213,0.218,19.68,109.7562,24.27,25.29,22.7,0,111.2,13.09,25.10,145.6
"2009-08-21 00:56:00",1169681,1.464,180,4.044,0.11,19.67,109.7551,24.27,25.28,22.3,0,111.2,13.09,25.10,142.0
"2009-08-21 00:56:30",1169682,0.98,173.3,6.421,0.103,19.73,109.7551,24.27,25.28,22.3,0,111.2,13.09,25.10,135.3
"2009-08-21 00:57:00",1169683,1.088,172.7,5.625,0.11,19.72,109.7551,24.27,25.29,22.29,0,111.2,13.09,25.10,134.7
"2009-08-21 00:57:30",1169684,1.049,166.3,4,0.104,19.73,109.7539,24.26,25.28,22.29,0,111.2,13.09,25.10,128.3
"2009-08-21 00:58:00",1169685,1.143,171.5,3.675,0.144,19.72,109.7551,24.27,25.26,22.34,0,111.2,13.09,25.10,133.5
"2009-08-21 00:58:30",1169686,0.655,164.2,8.26,0.181,19.71,109.7543,24.26,25.27,22.33,0,111.2,13.09,25.10,126.2
"2009-08-21 00:59:00",1169687,0.746,137.4,7.002,0.111,19.64,109.7409,24.23,25.26,22.4,0,111.2,13.09,25.07,99.4
"2009-08-21 00:59:30",1169688,0.8,139.1,7.817,0.09,19.67,109.7229,24.18,25.24,22.41,0,111.2,13.09,25.02,101.1
"2009-08-21 01:00:00",1169689,1.208,133.2,7.299,0.092,19.65,109.7222,24.18,25.23,22.14,0,111.2,13.09,25.02,95.2
"2009-08-21 01:00:30",1169690,0.906,129.2,3.855,0.076,19.7,109.7028,24.13,25.2,21.92,0,111.2,13.09,24.97,91.2
"2009-08-21 01:01:00",1169691,1.079,142.7,9.8,0.197,19.72,109.6917,24.1,25.17,21.92,0,111.2,13.09,24.94,104.7
"2009-08-21 01:01:30",1169692,1.491,144,8.43,0.102,19.71,109.6933,24.11,25.15,22,0,111.2,13.09,24.94,106.0
"2009-08-21 01:02:00",1169693,1.776,145.2,5.888,0.175,19.75,109.6937,24.11,25.13,21.88,0,111.2,13.09,24.94,107.2
"2009-08-21 01:02:30",1169694,1.692,153.3,4.673,0.117,19.78,109.6657,24.04,25.1,22.08,0,111.2,13.09,24.87,115.3
"2009-08-21 01:03:00",1169695,1.588,146.4,5.841,0.176,19.77,109.6595,24.02,25.07,21.86,0,111.2,13.09,24.86,108.4
"2009-08-21 01:03:30",1169696,1.735,140.1,3.499,0.24,19.84,109.6587,24.02,25.04,21.97,0,111.2,13.09,24.85,102.1
"2009-08-21 01:04:00",1169697,1.882,141.3,2.779,0.109,19.82,109.6534,24,25.02,22.02,0,111.2,13.09,24.84,103.3
"2009-08-21 01:04:30",1169698,1.915,142.1,2.796,0.057,19.8,109.6462,23.99,24.99,22,0,111.2,13.09,24.82,104.1
"2009-08-21 01:05:00",1169699,1.987,143.3,3.486,0.087,19.88,109.6428,23.98,24.99,22.04,0,111.2,13.09,24.81,105.3
"2009-08-21 01:05:30",1169700,1.989,141.1,3.598,0.124,19.85,109.6434,23.98,24.99,21.99,0,111.2,13.1,24.81,103.1
"2009-08-21 01:06:00",1169701,1.967,149,2.705,0.104,19.95,109.6448,23.98,24.99,21.94,0,111.2,13.1,24.82,111.0
"2009-08-21 01:06:30",1169702,1.785,151.8,2.048,0.09,19.91,109.642,23.97,24.99,22.01,0,111.2,13.1,24.81,113.8
"2009-08-21 01:07:00",1169703,1.524,156.4,5.221,0.146,19.95,109.6437,23.98,24.99,22.03,0,111.2,13.1,24.81,118.4
"2009-08-21 01:07:30",1169704,1.434,168.9,7.667,0.138,19.92,109.6392,23.97,24.97,22.04,0,111.2,13.1,24.80,130.9
"2009-08-21 01:08:00",1169705,1.247,174.6,9.28,0.102,19.95,109.638,23.96,24.98,21.94,0,111.2,13.1,24.80,136.6
"2009-08-21 01:08:30",1169706,1.104,166.8,2.816,0.123,19.96,109.6378,23.96,24.98,21.87,0,111.2,13.1,24.80,128.8
"2009-08-21 01:09:00",1169707,1.159,166.3,5.225,0.152,19.93,109.6344,23.96,24.98,21.86,0,111.2,13.1,24.79,128.3
"2009-08-21 01:09:30",1169708,1.373,154.7,7.093,0.282,19.93,109.6302,23.94,24.97,21.81,0,111.2,13.1,24.78,116.7
"2009-08-21 01:10:00",1169709,1.708,158,6.245,0.134,19.94,109.6299,23.94,24.97,21.74,0,111.2,13.1,24.78,120.0
"2009-08-21 01:10:30",1169710,1.736,143.2,2.844,0.082,19.89,109.6296,23.94,24.96,21.84,0,111.2,13.1,24.78,105.2
"2009-08-21 01:11:00",1169711,1.269,140.9,2.508,0.093,19.92,109.6131,23.9,24.94,21.96,0,111.2,13.1,24.74,102.9
"2009-08-21 01:11:30",1169712,1.165,154.3,7.593,0.172,19.91,109.5968,23.86,24.92,22.04,0,111.2,13.1,24.69,116.3
"2009-08-21 01:12:00",1169713,1.437,151,3.267,0.11,19.98,109.596,23.86,24.92,22.07,0,111.2,13.1,24.69,113.0
"2009-08-21 01:12:30",1169714,1.332,150.4,7.229,0.083,19.98,109.596,23.86,24.89,22.07,0,111.2,13.1,24.69,112.4
"2009-08-21 01:13:00",1169715,1.43,159.9,2.226,0.109,19.97,109.5951,23.85,24.87,22.04,0,111.2,13.1,24.69,121.9
"2009-08-21 01:13:30",1169716,1.555,161.7,1.264,0.065,19.99,109.5906,23.84,24.87,22.02,0,111.2,13.1,24.68,123.7
"2009-08-21 01:14:00",1169717,1.406,164.2,2.738,0.085,19.98,109.5803,23.82,24.86,21.93,0,111.2,13.1,24.65,126.2
"2009-08-21 01:14:30",1169718,1.444,160.5,5.865,0.09,20,109.5737,23.8,24.85,21.99,0,111.2,13.1,24.63,122.5
"2009-08-21 01:15:00",1169719,1.488,156.8,2.585,0.088,20,109.5735,23.8,24.85,22.02,0,111.2,13.1,24.63,118.8
"2009-08-21 01:15:30",1169720,1.443,141.4,4.74,0.061,20.01,109.5717,23.79,24.85,22.09,0,111.2,13.1,24.63,103.4
"2009-08-21 01:16:00",1169721,1.418,150.8,6.98,0.055,20.03,109.5693,23.79,24.83,22.07,0,111.2,13.1,24.62,112.8
"2009-08-21 01:16:30",1169722,1.395,155.8,5.72,0.104,20.02,109.5752,23.8,24.83,22.05,0,111.2,13.1,24.64,117.8
"2009-08-21 01:17:00",1169723,1.276,151.6,3.143,0.14,20.05,109.5804,23.82,24.82,22.02,0,111.2,13.1,24.65,113.6
"2009-08-21 01:17:30",1169724,1.133,156.4,6.203,0.051,20.07,109.5838,23.83,24.82,22.05,0,111.2,13.1,24.66,118.4
"2009-08-21 01:18:00",1169725,1.152,152.3,4.25,0.103,20.06,109.5826,23.82,24.81,22.07,0,111.2,13.1,24.66,114.3
"2009-08-21 01:18:30",1169726,1.155,154.2,2.678,0.028,20.07,109.5788,23.81,24.82,22.08,0,111.2,13.1,24.65,116.2
"2009-08-21 01:19:00",1169727,1.161,147.2,4.064,0.068,20.1,109.5721,23.8,24.81,22.1,0,111.2,13.1,24.63,109.2
"2009-08-21 01:19:30",1169728,1.458,157.3,2.976,0.137,20.08,109.5669,23.78,24.8,22.11,0,111.2,13.1,24.62,119.3
"2009-08-21 01:20:00",1169729,1.611,160.7,4.347,0.09,20.16,109.565,23.78,24.8,22.07,0,111.2,13.1,24.61,122.7
"2009-08-21 01:20:30",1169730,1.636,159.7,4.704,0.096,20.16,109.5577,23.76,24.79,22.1,0,111.2,13.1,24.59,121.7
"2009-08-21 01:21:00",1169731,1.49,164.1,3.372,0.057,20.2,109.5578,23.76,24.79,22.07,0,111.2,13.1,24.59,126.1
"2009-08-21 01:21:30",1169732,1.65,165.7,4.129,0.098,20.17,109.5424,23.72,24.76,22.11,0,111.2,13.1,24.55,127.7
"2009-08-21 01:22:00",1169733,1.754,161.8,1.735,0.059,20.19,109.535,23.7,24.73,22.25,0,111.2,13.1,24.53,123.8
"2009-08-21 01:22:30",1169734,1.838,163.1,1.978,0.074,20.13,109.5303,23.69,24.71,22.29,0,111.2,13.1,24.52,125.1
"2009-08-21 01:23:00",1169735,1.829,163.3,3.245,0.071,20.16,109.5312,23.69,24.7,22.33,0,111.2,13.1,24.52,125.3
"2009-08-21 01:23:30",1169736,1.841,170.9,2.797,0.069,20.3,109.5315,23.69,24.7,22.4,0,111.2,13.11,24.53,132.9
"2009-08-21 01:24:00",1169737,1.979,176.3,1.142,0.068,20.31,109.5248,23.67,24.67,22.58,0,111.1,13.11,24.51,138.3
"2009-08-21 01:24:30",1169738,1.894,179.3,3.499,0.092,20.31,109.5102,23.64,24.66,22.66,0,111.2,13.11,24.47,141.3
"2009-08-21 01:25:00",1169739,1.799,182.3,1.886,0.085,20.31,109.5012,23.61,24.65,22.64,0,111.1,13.11,24.45,144.3
"2009-08-21 01:25:30",1169740,1.598,179.1,2.239,0.076,20.31,109.4981,23.61,24.63,22.67,0,111.2,13.11,24.44,141.1
"2009-08-21 01:26:00",1169741,1.44,174.2,3.304,0.192,20.32,109.4833,23.57,24.6,22.67,0,111.1,13.11,24.40,136.2
"2009-08-21 01:26:30",1169742,1.479,169.5,3.984,0.082,20.31,109.465,23.52,24.59,22.61,0,111.1,13.11,24.35,131.5
"2009-08-21 01:27:00",1169743,1.426,172,5.242,0.076,20.32,109.4617,23.51,24.56,22.65,0,111.1,13.11,24.35,134.0
"2009-08-21 01:27:30",1169744,1.671,174.2,2.332,0.202,20.35,109.4572,23.5,24.52,22.64,0,111.1,13.11,24.33,136.2
"2009-08-21 01:28:00",1169745,1.727,182.8,6.654,0.133,20.37,109.444,23.47,24.51,22.85,0,111.1,13.11,24.30,144.8
"2009-08-21 01:28:30",1169746,1.372,185.9,4.793,0.126,20.35,109.4353,23.44,24.51,22.89,0,111.1,13.12,24.28,147.9
"2009-08-21 01:29:00",1169747,1.384,180.6,5.669,0.114,20.37,109.4308,23.43,24.49,22.94,0,111.1,13.12,24.27,142.6
"2009-08-21 01:29:30",1169748,1.423,183.8,4.688,0.146,20.39,109.4294,23.43,24.46,23,0,111.1,13.12,24.26,145.8
"2009-08-21 01:30:00",1169749,1.285,190.7,5.911,0.119,20.45,109.4183,23.4,24.44,23.1,0,111.1,13.12,24.23,152.7
"2009-08-21 01:30:30",1169750,0.996,190.9,4.169,0.098,20.44,109.4093,23.38,24.43,23.12,0,111.1,13.12,24.21,152.9
"2009-08-21 01:31:00",1169751,1.192,183.4,4.282,0.137,20.41,109.4008,23.36,24.41,23.16,0,111.1,13.12,24.19,145.4
"2009-08-21 01:31:30",1169752,1.332,177.6,2.195,0.077,20.43,109.4026,23.36,24.4,23.04,0,111.1,13.12,24.19,139.6
"2009-08-21 01:32:00",1169753,1.486,175.1,6.492,0.06,20.41,109.4107,23.38,24.39,22.94,0,111.1,13.12,24.21,137.1
"2009-08-21 01:32:30",1169754,1.494,158.3,2.135,0.078,20.34,109.3987,23.35,24.37,22.76,0,111.1,13.12,24.18,120.3
"2009-08-21 01:33:00",1169755,1.59,157.9,2.756,0.094,20.38,109.3927,23.33,24.35,22.79,0,111.1,13.12,24.17,119.9
"2009-08-21 01:33:30",1169756,1.906,161.3,1.519,0.056,20.43,109.3904,23.33,24.35,22.67,0,111.1,13.12,24.16,123.3
"2009-08-21 01:34:00",1169757,1.943,159.3,4.457,0.094,20.49,109.3905,23.33,24.35,22.54,0,111.1,13.11,24.16,121.3
"2009-08-21 01:34:30",1169758,1.961,161.1,3.794,0.068,20.52,109.3725,23.28,24.31,22.73,0,111.1,13.12,24.12,123.1
"2009-08-21 01:35:00",1169759,1.836,162.1,1.819,0.072,20.52,109.3618,23.26,24.3,22.78,0,111.1,13.11,24.09,124.1
"2009-08-21 01:35:30",1169760,1.805,155.2,3.282,0.089,20.54,109.3601,23.25,24.27,22.86,0,111.1,13.11,24.08,117.2
"2009-08-21 01:36:00",1169761,1.644,149.3,2.146,0.089,20.48,109.3558,23.24,24.27,22.77,0,111.1,13.11,24.07,111.3
"2009-08-21 01:36:30",1169762,1.805,150.8,2.61,0.111,20.55,109.3396,23.2,24.24,22.62,0,111.1,13.11,24.03,112.8
"2009-08-21 01:37:00",1169763,1.836,145.6,2.068,0.095,20.51,109.3329,23.18,24.23,22.59,0,111.1,13.12,24.01,107.6
"2009-08-21 01:37:30",1169764,1.845,147.5,2.227,0.049,20.53,109.3323,23.18,24.2,22.5,0,111.1,13.12,24.01,109.5
"2009-08-21 01:38:00",1169765,1.79,147.4,1.555,0.063,20.52,109.3174,23.14,24.19,22.52,0,111.1,13.12,23.97,109.4
"2009-08-21 01:38:30",1169766,1.729,151.2,2.719,0.077,20.63,109.3037,23.11,24.17,22.6,0,111.1,13.12,23.94,113.2
"2009-08-21 01:39:00",1169767,1.711,156.2,3.456,0.06,20.58,109.2992,23.09,24.15,22.79,0,111.1,13.12,23.93,118.2
"2009-08-21 01:39:30",1169768,1.607,156.9,2.819,0.045,20.55,109.2981,23.09,24.13,22.89,0,111.1,13.12,23.92,118.9
"2009-08-21 01:40:00",1169769,1.587,149.8,2.368,0.07,20.65,109.2781,23.04,24.12,22.8,0,111.1,13.12,23.87,111.8
"2009-08-21 01:40:30",1169770,1.673,153,2.445,0.036,20.58,109.2661,23.01,24.09,22.77,0,111.1,13.12,23.84,115.0
"2009-08-21 01:41:00",1169771,1.551,144.9,4.794,0.107,20.62,109.2652,23.01,24.08,22.7,0,111.1,13.13,23.84,106.9
"2009-08-21 01:41:30",1169772,1.554,143,2.347,0.032,20.65,109.2467,22.96,24.06,22.57,0,111.1,13.13,23.79,105.0
"2009-08-21 01:42:00",1169773,1.518,148.3,1.962,0.073,20.69,109.2335,22.93,24.04,22.55,0,111.1,13.13,23.76,110.3
"2009-08-21 01:42:30",1169774,1.526,152.2,1.925,0.049,20.75,109.2358,22.93,24.03,22.68,0,111,13.13,23.76,114.2
"2009-08-21 01:43:00",1169775,1.411,152.2,3.876,0.06,20.71,109.2325,22.92,23.99,22.74,0,111,13.13,23.76,114.2
"2009-08-21 01:43:30",1169776,1.428,144.9,1.538,0.058,20.72,109.2235,22.9,23.98,22.73,0,111,13.13,23.73,106.9
"2009-08-21 01:44:00",1169777,1.401,149.8,2.156,0.049,20.71,109.2245,22.9,23.94,22.67,0,111,13.13,23.73,111.8
"2009-08-21 01:44:30",1169778,1.502,149.4,4.155,0.051,20.73,109.2136,22.87,23.92,22.59,0,111,13.14,23.71,111.4
"2009-08-21 01:45:00",1169779,1.55,151.2,1.6,0.028,20.79,109.1954,22.83,23.9,22.58,0,111,13.14,23.66,113.2
"2009-08-21 01:45:30",1169780,1.586,145.5,3.069,0.047,20.72,109.1926,22.82,23.89,22.57,0,111,13.14,23.65,107.5
"2009-08-21 01:46:00",1169781,1.651,146.2,2.72,0.057,20.59,109.1825,22.79,23.86,22.58,0,111,13.14,23.63,108.2
"2009-08-21 01:46:30",1169782,1.756,150.2,1.287,0.049,20.61,109.1696,22.76,23.83,22.62,0,111,13.14,23.59,112.2
"2009-08-21 01:47:00",1169783,1.754,149.3,1.258,0.045,20.58,109.1672,22.76,23.8,22.7,0,111,13.14,23.59,111.3